Theta_e
318 317 317 316 316 315 315 315 315 317 319 322 323 323 323 321 322 324 323 323 322 321 320 321 324 324 322 321 317 315 317 317 318 320 319 319 321 320 320 321 321 337 339 336 344
317 317 316 316 316 315 315 315 315 317 320 322 323 323 322 320 324 325 322 320 321 320 320 322 322 321 320 319 318 316 315 319 317 320 321 321 319 318 321 321 324 347 342 343 343
317 316 316 316 315 315 315 315 315 317 320 322 323 323 321 321 325 321 321 321 322 320 320 321 322 322 322 320 319 318 319 319 320 320 319 320 320 319 321 322 322 348 346 343 342
316 316 316 316 315 315 315 315 315 317 320 322 323 323 321 325 330 322 322 322 321 319 321 322 321 323 323 323 321 322 320 320 320 321 321 322 320 321 320 321 324 344 344 343 342
316 316 316 316 315 314 314 314 314 317 320 322 323 323 321 323 326 323 323 322 321 321 321 322 321 322 323 322 322 323 323 322 321 321 321 321 321 321 321 320 323 342 343 343 342
316 316 315 315 315 315 314 314 313 315 320 323 323 323 321 325 323 322 322 323 322 321 321 320 321 320 322 323 323 323 323 321 321 322 322 323 321 321 320 320 321 342 342 340 341
316 315 315 315 315 315 314 313 313 314 319 323 324 322 320 323 326 323 322 323 322 321 320 321 320 320 320 322 323 323 323 321 322 322 323 322 322 321 320 320 320 320 320 327 337
317 316 316 315 315 314 313 312 313 316 321 324 325 320 324 326 326 323 321 322 323 321 321 321 321 320 321 320 322 324 322 324 322 323 321 321 321 320 318 317 319 320 318 318 320
317 317 316 315 314 313 313 312 315 321 326 327 321 324 328 324 323 322 322 322 322 322 322 322 321 321 321 323 321 322 325 323 319 319 320 320 321 319 320 321 320 319 318 319 319
316 316 317 316 315 313 312 313 322 327 325 323 321 323 322 325 325 323 323 322 321 321 320 321 319 320 319 321 325 323 321 319 318 318 320 321 320 317 317 319 318 317 316 318 319
316 317 317 317 316 314 312 323 322 322 322 325 324 324 323 324 324 322 323 322 321 321 322 321 322 323 321 322 323 320 319 319 317 318 320 319 318 317 315 316 316 315 313 319 320
319 318 316 317 317 314 313 321 325 322 324 322 322 323 324 324 320 315 317 321 322 323 321 321 322 321 322 322 319 320 320 319 319 318 318 316 316 315 315 316 316 316 316 320 322
321 320 320 319 317 315 313 318 325 324 324 326 325 325 319 319 317 317 314 315 319 322 321 321 322 322 320 319 319 319 320 320 319 317 317 316 317 317 317 316 318 316 317 322 327
321 321 321 319 317 314 319 326 325 324 325 328 325 317 316 316 318 317 315 316 316 319 319 320 320 320 319 320 319 321 320 318 318 317 317 315 316 316 317 316 318 317 319 322 323
321 321 321 319 317 324 323 321 324 324 318 321 319 317 316 319 318 316 316 316 318 319 317 320 319 320 321 319 320 321 318 318 317 316 316 316 316 315 316 318 319 318 319 318 319
322 321 321 320 318 324 323 324 325 322 326 327 319 319 318 317 317 316 316 315 316 317 318 317 318 318 319 319 318 319 318 317 316 315 318 318 317 317 317 319 319 320 320 318 316
323 322 321 321 318 321 322 322 320 324 320 327 323 320 320 321 318 317 317 317 316 320 322 322 321 320 318 319 319 318 317 320 323 321 321 320 319 318 318 317 320 321 318 316 315
324 323 321 321 320 317 322 325 323 319 324 324 326 323 321 320 320 318 317 317 316 318 320 323 325 324 320 319 319 318 318 321 325 324 322 319 321 319 318 320 320 320 318 316 315
325 323 321 321 321 321 320 326 318 319 322 325 324 327 328 326 322 319 316 317 317 316 321 327 328 324 321 320 319 319 318 317 319 319 320 319 318 317 317 320 320 319 319 317 316
320 320 321 322 321 322 324 321 319 318 322 324 325 325 328 327 326 322 322 322 320 321 320 321 324 322 324 320 318 318 317 319 318 322 324 321 319 319 319 320 320 318 317 315 312
321 320 321 323 321 324 326 323 319 319 322 324 325 325 326 326 324 325 326 325 321 321 319 320 318 319 319 321 321 321 317 317 317 319 320 319 318 316 317 317 319 316 314 311 308
317 322 321 321 325 325 325 323 322 320 319 323 324 324 326 325 325 326 327 326 321 322 322 318 319 320 319 318 319 320 322 318 318 322 316 317 321 316 315 316 316 315 311 308 306
317 317 320 322 328 327 325 325 323 324 322 322 324 325 325 327 329 327 327 323 322 323 321 319 323 328 329 322 320 321 321 321 322 318 323 322 320 313 315 314 312 309 309 308 308
313 314 313 319 324 326 324 326 326 322 324 323 324 324 325 327 326 326 324 320 317 322 320 322 325 329 331 327 324 325 323 322 321 318 322 323 322 315 314 314 312 309 308 308 307
310 311 313 318 320 326 326 325 327 327 324 323 324 326 326 327 327 327 325 319 316 319 320 324 329 328 326 326 326 327 327 326 326 323 321 322 320 318 316 315 313 311 309 309 307
306 310 311 314 321 321 323 327 327 326 325 326 326 325 325 327 326 327 326 324 322 318 319 317 326 322 327 325 325 326 325 324 323 321 321 320 320 318 317 313 311 310 309 307 308
304 305 311 315 318 321 322 322 326 324 323 324 324 325 325 325 323 323 321 323 321 322 319 318 318 318 326 324 322 323 322 322 321 320 321 321 319 317 315 314 312 311 307 309 308
Wind_Speed
8 8 10 12 13 17 18 19 21 23 26 28 32 36 37 33 28 3 3 2 2 5 9 8 6 8 5 3 3 5 2 2 5 2 7 6 2 6 1 2 3 4 8 5 33
8 9 11 12 14 16 18 20 21 23 25 29 33 37 33 34 14 2 4 4 2 6 4 4 5 9 3 3 1 3 3 5 6 2 4 3 3 6 4 4 5 4 10 24 29
9 10 12 13 14 16 19 20 22 23 26 30 34 37 32 23 3 3 4 0 5 4 5 5 6 1 3 0 3 3 6 9 16 6 7 3 4 3 2 2 2 6 13 14 20
10 11 12 14 15 16 19 20 22 22 25 29 34 35 29 8 1 1 3 4 5 4 7 4 3 3 3 4 2 3 8 8 9 4 3 3 3 4 4 4 4 13 18 14 15
11 11 12 15 15 17 19 21 22 22 24 27 31 30 13 5 4 2 4 6 6 5 5 3 4 2 2 4 6 5 4 8 8 7 3 4 4 5 6 8 7 12 16 17 17
12 12 13 14 16 18 20 22 22 22 24 25 28 24 5 4 1 3 4 6 7 7 4 2 1 4 3 4 1 4 6 8 7 9 3 3 6 3 8 8 9 15 16 14 16
14 13 14 15 16 19 21 24 25 23 25 25 23 14 2 9 6 11 9 9 6 5 2 3 3 4 3 6 2 7 7 9 10 4 5 3 8 7 9 6 10 11 12 14 18
16 14 15 14 16 18 21 23 26 24 26 24 16 1 6 9 8 5 2 5 10 6 6 4 5 1 2 4 7 4 3 3 7 2 5 10 9 6 9 7 9 9 7 8 5
17 15 14 14 15 18 21 23 24 26 22 12 1 3 8 6 5 7 3 1 4 4 6 7 2 3 4 1 4 2 3 4 8 3 2 5 9 6 1 6 8 8 8 3 7
17 15 15 13 14 17 20 22 22 8 3 3 2 1 5 4 3 5 8 7 1 4 6 3 3 1 2 3 4 3 2 4 5 5 6 3 9 8 5 6 9 9 9 9 7
17 15 14 14 14 14 18 10 6 4 4 4 7 9 14 26 17 7 10 7 3 2 3 3 1 7 9 7 7 6 3 3 5 6 2 3 6 10 9 8 8 9 6 9 8
18 15 12 13 13 11 10 2 2 2 9 12 19 16 24 12 5 7 5 5 5 6 2 4 6 11 4 9 8 2 4 6 5 3 2 6 10 10 8 8 8 10 9 12 8
20 16 13 10 12 11 6 9 4 7 3 8 6 5 2 11 5 5 6 3 4 5 7 6 6 3 6 3 2 3 3 3 4 6 2 6 7 7 6 5 6 7 14 14 14
21 18 13 8 7 5 4 6 5 5 3 7 3 3 3 3 3 7 8 5 2 10 7 7 8 5 5 5 5 4 4 5 2 4 2 5 5 7 10 7 2 2 9 10 8
23 20 17 14 3 4 1 3 2 1 3 4 2 7 4 4 1 4 3 3 3 3 5 8 4 6 5 8 4 7 3 2 2 1 2 3 1 8 6 5 4 5 9 9 9
25 23 19 17 19 6 2 3 1 5 6 4 5 5 3 3 2 2 1 1 3 2 2 7 2 5 8 6 7 1 2 4 4 3 2 4 5 5 4 2 3 1 9 10 10
28 26 26 23 8 12 1 3 3 5 4 5 5 6 5 5 5 6 4 3 4 2 3 3 6 5 6 5 1 3 5 4 4 1 5 3 3 8 6 7 13 13 9 9 9
30 28 30 31 15 17 5 2 10 8 9 3 5 5 6 7 6 8 5 4 6 2 1 4 6 4 4 8 8 6 8 5 5 3 5 8 6 6 4 3 9 12 12 9 7
31 31 25 35 28 15 4 12 8 10 7 4 3 4 4 4 5 6 9 6 8 11 7 3 5 2 4 3 7 3 4 6 2 2 0 5 7 5 4 5 8 9 8 8 8
27 17 25 40 35 16 10 20 10 9 6 5 9 6 8 6 3 5 6 6 8 2 6 2 4 5 9 3 1 6 3 0 2 4 5 4 5 6 4 6 7 9 9 7 5
20 4 17 48 42 8 19 13 14 7 5 9 10 7 6 5 6 4 4 1 2 3 6 2 3 5 4 2 6 1 1 1 3 5 5 3 6 5 11 8 10 9 8 8 8
7 6 24 46 15 15 22 21 14 17 7 8 6 9 8 9 7 7 8 7 5 3 4 0 4 4 8 6 4 4 5 6 4 6 4 4 18 4 8 8 9 7 8 8 7
5 3 18 40 15 17 14 18 24 11 18 9 9 7 9 10 5 8 8 2 8 7 8 7 2 3 4 2 2 7 5 6 5 2 12 7 8 3 5 6 6 10 8 5 5
3 4 3 7 12 17 18 22 20 22 10 11 7 9 6 14 10 6 7 4 3 4 7 8 6 9 16 9 1 5 5 4 2 2 7 21 23 3 5 8 6 7 7 7 7
3 4 4 8 10 21 13 5 24 17 24 19 8 23 17 10 18 16 6 3 4 4 1 6 12 15 18 21 20 22 24 23 20 18 10 16 16 8 13 11 11 10 8 7 4
4 4 2 2 20 17 13 20 23 20 12 23 24 20 23 29 22 16 20 11 9 3 7 3 8 2 18 15 16 21 22 18 22 22 20 26 32 17 16 10 8 10 9 8 10
6 3 3 8 11 15 20 18 17 17 11 20 27 21 20 25 20 17 6 10 8 13 11 9 6 6 15 9 7 15 20 23 22 22 19 19 30 19 9 10 10 9 9 11 9
Wind_Direction
304 318 327 330 337 336 339 342 344 345 346 346 345 345 345 340 340 139 177 195 190 332 328 328 331 339 309 234 188 129 71 269 260 344 306 323 319 313 166 109 197 180 154 195 151
292 308 315 322 331 332 334 336 340 342 344 343 344 344 347 337 343 33 160 158 308 330 326 351 308 1 329 251 239 103 132 244 209 241 262 316 39 331 353 350 43 45 55 121 141
285 299 307 316 323 328 331 332 335 339 341 341 342 343 345 336 324 322 140 328 319 315 300 305 291 194 265 119 230 225 227 245 268 251 230 219 332 312 28 330 193 166 140 139 149
275 289 300 308 318 324 326 327 330 334 337 338 341 342 347 355 114 220 12 325 322 305 299 315 327 298 255 294 302 284 252 260 265 227 238 222 198 322 156 237 198 163 160 154 171
268 282 294 303 313 317 318 321 324 328 331 334 339 342 359 1 266 217 16 336 307 293 263 288 325 305 319 296 332 218 307 324 300 295 335 295 269 229 272 263 165 150 164 176 188
264 276 288 298 307 312 315 316 318 322 324 328 333 339 15 303 17 328 294 312 307 278 292 340 256 230 261 290 207 281 284 281 281 287 234 259 271 62 260 263 157 164 189 192 195
260 271 281 293 304 311 315 315 315 318 317 322 323 337 337 242 299 310 290 279 288 300 324 337 54 59 341 306 299 282 317 338 303 257 244 102 305 236 260 259 213 186 194 196 211
261 265 278 290 301 309 314 314 312 314 311 311 315 337 251 288 283 252 273 289 275 270 275 281 337 356 201 292 331 326 44 330 278 231 247 129 263 281 278 224 201 213 222 241 56
256 266 273 286 299 309 312 313 309 309 307 294 84 123 269 311 245 226 240 224 318 298 329 291 20 219 339 212 352 358 255 249 316 23 122 137 241 247 206 161 211 232 240 155 101
252 259 270 280 297 309 316 317 308 315 46 65 134 31 266 223 338 248 235 227 178 352 353 11 47 322 0 83 206 249 250 268 270 305 7 284 257 267 262 211 232 244 253 139 119
243 253 265 281 295 310 329 348 10 351 15 231 245 247 272 278 291 262 230 209 130 66 199 294 50 230 232 215 234 264 243 272 255 298 308 283 280 289 286 299 276 248 239 149 143
242 242 251 274 287 301 315 328 312 263 300 238 246 263 257 259 293 280 185 138 151 202 214 349 249 245 260 266 235 253 298 293 292 7 352 314 293 256 244 254 244 262 144 158 154
237 239 241 253 281 286 261 250 353 319 291 293 229 214 294 154 223 260 138 145 182 188 198 181 236 153 189 273 339 290 242 284 266 311 358 357 304 329 286 289 273 286 168 163 154
233 231 229 229 264 254 258 344 191 314 359 274 232 203 111 117 251 222 178 147 248 204 181 221 251 228 210 232 177 255 214 208 211 21 270 109 279 284 273 290 100 328 135 127 123
230 224 215 201 234 188 291 114 283 96 358 258 170 149 149 158 275 224 181 94 221 257 117 239 203 194 208 227 183 227 208 245 250 172 354 320 105 270 285 308 174 122 118 109 123
224 219 206 206 240 179 137 75 5 54 236 280 149 173 141 197 240 126 164 164 234 282 240 248 320 165 209 244 207 259 2 351 44 103 341 261 166 267 266 198 183 116 125 128 126
221 214 205 202 224 192 338 77 48 193 267 214 192 170 200 189 198 173 190 210 195 131 246 306 257 244 179 218 222 108 60 329 335 20 224 295 303 244 271 260 184 162 153 148 147
218 211 208 213 215 203 187 87 217 213 216 311 114 139 180 175 229 185 192 224 243 222 313 215 311 211 170 190 189 188 162 172 229 233 255 331 262 266 321 317 128 145 152 158 157
212 208 203 210 206 192 127 219 203 188 207 202 71 129 222 236 193 171 206 214 210 182 191 231 242 305 111 135 137 218 171 189 182 239 221 226 284 319 44 73 116 138 150 166 174
197 195 205 205 197 194 206 226 198 197 183 163 208 172 186 206 186 180 202 213 226 158 165 232 281 267 266 112 28 164 173 126 19 286 253 262 248 233 223 182 164 169 171 175 151
200 200 189 197 183 193 220 214 208 231 193 170 204 206 194 201 207 213 226 334 23 133 94 140 136 281 4 195 188 326 244 264 211 156 226 283 254 223 197 190 185 190 179 166 169
164 205 171 171 192 206 222 204 191 200 209 244 192 191 185 194 219 208 213 210 155 155 80 175 131 211 222 277 239 212 222 187 190 248 231 209 259 220 197 201 177 175 168 183 186
169 158 187 175 199 214 219 215 220 186 210 200 210 188 201 213 233 203 203 213 167 155 171 183 175 314 267 277 320 251 207 214 249 146 234 230 252 150 150 187 181 161 185 193 204
135 156 247 205 214 216 221 221 214 210 220 212 194 174 185 212 214 215 198 176 304 201 169 134 180 226 255 249 235 272 273 283 224 230 271 238 264 200 195 183 178 195 200 212 229
175 218 177 195 208 209 214 213 219 212 211 193 223 205 191 219 220 222 198 125 25 132 73 142 246 240 248 250 251 259 252 257 267 254 248 271 253 224 228 236 211 205 217 227 165
159 162 191 232 208 194 202 220 223 212 193 216 221 204 205 222 207 211 221 207 203 158 164 151 242 247 261 245 244 258 252 244 242 251 260 266 268 248 253 230 204 207 204 176 151
192 241 172 181 195 204 210 220 227 213 219 224 219 217 210 222 221 221 199 214 191 189 176 166 162 163 257 233 242 261 249 230 232 233 232 240 247 280 236 226 227 225 186 160 154